TOURFACTS.DK  
Stats and Facts from Tour de France.

Tour de France 2019 starts in 348 days
  Riders   Stages   Teams   Summits   Yearly  


 
Search by year

After 2018 - Stage 14:
 15000 starters.
  5163 different riders.
  639 teams.
  2246 stages.
  456 restdays.
  441957.60 km.
  5678 abandonnees.


Top 3
GC
Christopher Froome86:20:55
Rigoberto Urán86:21:49
Romain Bardet86:23:15
Climb
Warren Barguil169 pt.
Primoz Roglic80 pt.
Thomas De Gendt64 pt.
Sprint
Michael Matthews359 pt.
André Greipel234 pt.
Edvald Boasson Hagen220 pt.
Youth
Simon Yates86:27:09
Louis Meintjes86:29:15
Emanuel Buchmann86:54:16
Facts from Tour de France 1931
  |   Stages.  |   Stage winners.  |   Days in yellow  |   Average speed.  |   Route.  |   Teams.  |   All riders.  |   Rookies.  |  

  |   Withdrawls.  |   GC.  |   Polka  |   Green  |   White  |   Summits. (In tour)  |   Miscellaneous.  |  

Stage 6 on July 5th. 1931
         Owning:    Rafaële Di Paco    
Pick a stage:  1 2 3 4 5 6 7 8 9 10 11 12 13 14 15 16 17 18 19 20 21 22 23 24
From: Les Sables-d´Olonne    To: BordeauxDist:338.00 km.

Average speed for all riders in stage:  30,804 km./hr.
    Place:Name:Team:Time:Km/h:
BELAlfred HamerlinckBELBelgium10:46:20  +  00:00:00=31,377 
FRAAndré LeducqFRAFrance10:46:20  +  00:00:00=31,377 
ITAFabio BattesiniITAItaly10:46:20  +  00:00:00=31,377 
4 ITARafaële Di PacoITAItaly10:46:20  +  00:00:00=31,377 
5 POLAlfred SiegelDEUGermany10:46:20  +  00:00:00=31,377 
6 FRALéon Le CalvezFRAFrance10:46:20  +  00:00:00=31,377 
7 BELJulien VervaeckeBELBelgium10:46:20  +  00:00:00=31,377 
8 GEROskar ThierbachDEUGermany10:46:20  +  00:00:00=31,377 
9 GERErich MetzeDEUGermany10:46:20  +  00:00:00=31,377 
10 GERLudwig GeyerDEUGermany10:46:20  +  00:00:00=31,377 
11 GERKurt StöpelDEUGermany10:46:20  +  00:00:00=31,377 
12 GERHermann BuseDEUGermany10:46:20  +  00:00:00=31,377 
13 GERHerbert SieronskiDEUGermany10:46:20  +  00:00:00=31,377 
14 FRALouis PeglionFRAFrance10:46:20  +  00:00:00=31,377 
15 FRAAntonin MagneFRAFrance10:46:20  +  00:00:00=31,377 
16 FRABenoit FaureFRAFrance10:46:20  +  00:00:00=31,377 
17 FRACharles PelissierFRAFrance10:46:20  +  00:00:00=31,377 
18 FRAJean MaréchalFRAFrance10:46:20  +  00:00:00=31,377 
19 SUIAlbert BüchiCHEAustralia-Switzerland10:46:20  +  00:00:00=31,377 
20 SUIGeorges AntenenCHEAustralia-Switzerland10:46:20  +  00:00:00=31,377 
21 SUIRoger PipozCHEAustralia-Switzerland10:46:20  +  00:00:00=31,377 
22 AUSHubert OppermanCHEAustralia-Switzerland10:46:20  +  00:00:00=31,377 
23 BELGaston RebryBELBelgium10:46:20  +  00:00:00=31,377 
24 BELRomain GijsselsBELBelgium10:46:20  +  00:00:00=31,377 
25 BELJef DemuysereBELBelgium10:46:20  +  00:00:00=31,377 
26 BELAlfons SchepersBELBelgium10:46:20  +  00:00:00=31,377 
27 BELBernard Van RysselbergheBELBelgium10:46:20  +  00:00:00=31,377 
28 ITALuigi GiacobbeITAItaly10:46:20  +  00:00:00=31,377 
29 ITAEugenio GestriITAItaly10:46:20  +  00:00:00=31,377 
30 AUSRichard LambCHEAustralia-Switzerland10:46:20  +  00:00:00=31,377 
31 BELMaurice De WaeleBELBelgium10:46:20  +  00:00:00=31,377 
32 ITAAntonio PesentiITAItaly10:46:20  +  00:00:00=31,377 
33 FRAJoseph MauclairFRAFrance10:48:15  +  00:01:55=31,284 
34 GERKarl AltenburgerDEUGermany10:50:46  +  00:04:26=31,163 
35 ESPFrancisco CepedaESPSpain10:54:13  +  00:07:53=30,999 
36 FRARené BernardTouristes Routiers11:02:23  +  00:16:03=30,617 
37 FRAAndré Van VierstTouristes Routiers11:06:20  +  00:20:00=30,435 
38 AUTMax BullaTouristes Routiers11:06:20  +  00:20:00=30,435 
39 FRAAdrien ButtafocchiTouristes Routiers11:06:20  +  00:20:00=30,435 
40 BELJules GoedhuysTouristes Routiers11:06:20  +  00:20:00=30,435 
41 BELAchille ViaeneTouristes Routiers11:06:20  +  00:20:00=30,435 
42 BELAuguste Van TrichtTouristes Routiers11:06:20  +  00:20:00=30,435 
43 BELRobert Van GrootenbrueleTouristes Routiers11:06:20  +  00:20:00=30,435 
44 ITAGiuseppe PanceraTouristes Routiers11:06:20  +  00:20:00=30,435 
45 FRAJean BidotTouristes Routiers11:06:20  +  00:20:00=30,435 
46 FRAAndré GodinatTouristes Routiers11:06:20  +  00:20:00=30,435 
47 FRAMarius GuiramandTouristes Routiers11:06:20  +  00:20:00=30,435 
48 BELFrançois MoreelsTouristes Routiers11:07:29  +  00:21:09=30,383 
49 ITAAlessandro CatalaniTouristes Routiers11:07:38  +  00:21:18=30,376 
50 BELJean NaertTouristes Routiers11:07:38  +  00:21:18=30,376 
51 ITAMichele OrecchiaITAItaly11:07:52  +  00:21:32=30,365 
52 ITAFelice GremoITAItaly11:07:52  +  00:21:32=30,365 
53 ITAFrancesco CamussoITAItaly11:07:52  +  00:21:32=30,365 
54 FRARobert BrugéreTouristes Routiers11:08:15  +  00:21:55=30,348 
55 ITAAmulio ViarengoTouristes Routiers11:08:15  +  00:21:55=30,348 
56 FRALazare VenotTouristes Routiers11:08:15  +  00:21:55=30,348 
57 FRALouis BajardTouristes Routiers11:08:51  +  00:22:31=30,321 
58 FRAFrancois HenriTouristes Routiers11:10:32  +  00:24:12=30,245 
59 FRAFrancois FavéTouristes Routiers11:10:32  +  00:24:12=30,245 
60 GERErich UssatTouristes Routiers11:14:17  +  00:27:57=30,076 
61 FRAGeorges BertonTouristes Routiers11:15:23  +  00:29:03=30,027 
62 FRAFrancis BouilletTouristes Routiers11:25:31  +  00:39:11=29,584 
63 BELGerard LonckeTouristes Routiers11:25:31  +  00:39:11=29,584 
64 GERKurt NitzschkeTouristes Routiers11:51:52  +  01:05:32=28,488 
65 FRAFernand FayolleTouristes Routiers11:51:52  +  01:05:32=28,488 

Withdrawls: 3
 
Rider
Team
Reason
107  BELGeorges LaloupTouristes RoutiersDid not finish
114  ESPSalvador CardonaTouristes RoutiersDid not finish
137  FRAJean RiondetTouristes RoutiersDid not finish

Todays birthdays.

1877  Antoine Perrichon
1878  Auguste Berthault
1911  Théo Herckenrath
1924  Carlo Lafranchi
1931  Armand Di Caro
1937  Jean-Claude Lebaube
1951  Giovanni Battaglin
1961  Pascal Jules
1962  Jean-Claude Leclercq
1976  Janek Tombak
1978  Francisco Pérez
1983  Dries Devenyns




Visits: